Torna al catalogo

STARLINK-11245

AttivoComunicazioniVLEO
NORAD 60925·PAYLOAD·🇺🇸 United States

Lanciato Aug 31, 2024 da Vandenberg Space Force Base

Loading…

Prossimi Passaggi (prossime 24 ore)

TLE

AggiornatoSource: CelesTrak SupGP

Epoca: Sep 15, 2026, 02:14 UTC

1 60925C 24155B   26258.09354167  .00061788  00000+0  50881-3 0  2589
2 60925  53.1566 127.7526 0001068  88.1319  63.5205 15.69686068    12

Traccia STARLINK-11245 in tempo reale con AllMySat

Download on the App Store